Date String (YYYY-MM-DD hh:mm:ss) UTC,Instrument flags,absolute air pressure of the measurement (hPa),sample flow rate (lpm),inlet stack bypass flow (lpm),air temperature of the measurement (°C),ambient temperature measured by the external sensor (°C),aerosol sample conditioner tube jacket temperature (°C),OPC LED temperature (°C),internal box temperature (°C),relative humidity of the measurement (%),span deviation,mass concentration of particles derived from Lorenz-Mie calculation of OPC scattering (μg/m³),mass concentration of particles derived from Lorenz-Mie calculation of OPC scattering (μg/m³),mass concentration of particles derived from Lorenz-Mie calculation of OPC scattering (μg/m³)
DateTimeUTC,F1_M11,P_M11,Q1_M11,Q2_M11,T1_M11,T2_M11,T3_M11,T4_M11,T5_M11,U1_M11,ZSPAN_M11,X0_M11,X2_M11,X1_M11
2024-05-20 18:00:00,SystemResetWarning,0825.7,5.00,000.00,027.5,026.8,000.0,035.6,029.2,022.4,0000.0,0020.38,0006.88,0005.31
2024-05-20 18:01:00,SystemResetWarning,0825.7,5.00,000.00,027.5,026.8,000.0,035.6,029.3,022.6,0000.0,0020.86,0006.91,0005.36
2024-05-20 18:02:00,SystemResetWarning,0825.7,5.00,000.00,027.5,026.9,000.0,035.7,029.3,023.0,0000.0,0021.22,0007.01,0005.41
2024-05-20 18:03:00,SystemResetWarning,0825.6,5.00,000.00,027.5,026.9,000.0,035.7,029.3,022.6,0000.0,0021.37,0006.96,0005.42
2024-05-20 18:04:00,SystemResetWarning,0825.7,5.00,000.00,027.5,026.9,000.0,035.7,029.3,022.2,0000.0,0020.94,0006.92,0005.45
2024-05-20 18:05:00,SystemResetWarning,0825.7,5.00,000.00,027.5,026.9,000.0,035.7,029.3,022.3,0000.0,0021.77,0006.94,0005.50
2024-05-20 18:06:00,SystemResetWarning,0825.7,5.00,000.00,027.6,026.9,000.0,035.7,029.3,022.3,0000.0,0020.63,0007.00,0005.55
2024-05-20 18:07:00,SystemResetWarning,0825.7,5.00,000.00,027.6,026.9,000.0,035.7,029.4,022.2,0000.0,0019.63,0007.01,0005.56
2024-05-20 18:08:00,SystemResetWarning,0825.7,5.00,000.00,027.6,026.9,000.0,035.7,029.4,022.2,0000.0,0019.29,0007.03,0005.55
2024-05-20 18:09:00,SystemResetWarning,0825.7,5.00,000.00,027.6,026.9,000.0,035.8,029.4,022.3,0000.0,0020.24,0007.12,0005.57
2024-05-20 18:10:00,SystemResetWarning,0825.7,5.00,000.00,027.6,027.0,000.0,035.8,029.4,022.7,0000.0,0021.22,0007.19,0005.61
2024-05-20 18:11:00,SystemResetWarning,0825.7,5.00,000.00,027.6,027.0,000.0,035.8,029.4,022.9,0000.0,0021.02,0007.17,0005.62
2024-05-20 18:12:00,SystemResetWarning,0825.6,5.00,000.00,027.6,027.0,000.0,035.8,029.4,022.5,0000.0,0021.36,0007.20,0005.63
2024-05-20 18:13:00,SystemResetWarning,0825.6,5.00,000.00,027.6,027.0,000.0,035.8,029.4,022.4,0000.0,0021.87,0007.24,0005.66
2024-05-20 18:14:00,SystemResetWarning,0825.6,5.00,000.00,027.6,027.0,000.0,035.8,029.4,022.6,0000.0,0022.68,0007.37,0005.72
2024-05-20 18:15:00,SystemResetWarning,0825.5,5.00,000.00,027.7,027.0,000.0,035.9,029.4,022.7,0000.0,0023.63,0007.49,0005.74
2024-05-20 18:16:00,SystemResetWarning,0825.5,5.00,000.00,027.7,027.0,000.0,035.9,029.4,022.8,0000.0,0023.97,0007.52,0005.73
2024-05-20 18:17:00,SystemResetWarning,0825.5,5.00,000.00,027.7,027.0,000.0,035.9,029.5,022.8,0000.0,0025.94,0007.57,0005.72
2024-05-20 18:18:00,SystemResetWarning,0825.5,5.00,000.00,027.7,027.1,000.0,035.9,029.5,022.5,0000.0,0026.12,0007.54,0005.73
2024-05-20 18:19:00,SystemResetWarning,0825.5,5.00,000.00,027.7,027.1,000.0,035.9,029.5,022.5,0000.0,0025.61,0007.50,0005.75
2024-05-20 18:20:00,SystemResetWarning,0825.5,5.00,000.00,027.7,027.1,000.0,035.9,029.5,022.2,0000.0,0024.40,0007.44,0005.76
2024-05-20 18:21:00,SystemResetWarning,0825.5,5.00,000.00,027.8,027.1,000.0,035.9,029.5,022.3,0000.0,0023.44,0007.39,0005.77
2024-05-20 18:22:00,SystemResetWarning,0825.5,5.00,000.00,027.8,027.1,000.0,036.0,029.6,022.3,0000.0,0023.62,0007.38,0005.80
2024-05-20 18:23:00,SystemResetWarning,0825.4,5.00,000.00,027.8,027.1,000.0,036.0,029.6,022.4,0000.0,0023.87,0007.39,0005.80
2024-05-20 18:24:00,SystemResetWarning,0825.4,5.00,000.00,027.8,027.2,000.0,036.0,029.6,022.5,0000.0,0024.08,0007.36,0005.79
2024-05-20 18:25:00,SystemResetWarning,0825.3,5.00,000.00,027.8,027.2,000.0,036.0,029.6,022.5,0000.0,0023.07,0007.27,0005.76
2024-05-20 18:26:00,SystemResetWarning,0825.3,5.00,000.00,027.8,027.2,000.0,036.0,029.6,023.0,0000.0,0022.52,0007.21,0005.74
2024-05-20 18:27:00,SystemResetWarning,0825.4,5.00,000.00,027.8,027.2,000.0,036.0,029.6,023.1,0000.0,0021.38,0007.18,0005.73
2024-05-20 18:28:00,SystemResetWarning,0825.4,5.00,000.00,027.9,027.2,000.0,036.0,029.6,022.7,0000.0,0019.75,0007.05,0005.68
2024-05-20 18:29:00,SystemResetWarning,0825.4,5.01,000.00,027.9,027.2,000.0,036.1,029.6,023.0,0000.0,0019.03,0007.05,0005.67
2024-05-20 18:30:00,SystemResetWarning,0825.4,5.00,000.00,027.9,027.2,000.0,036.1,029.7,022.3,0000.0,0020.14,0007.06,0005.65
2024-05-20 18:31:00,SystemResetWarning,0825.3,5.00,000.00,027.9,027.2,000.0,036.1,029.7,022.1,0000.0,0019.98,0007.10,0005.64
2024-05-20 18:32:00,SystemResetWarning,0825.3,5.00,000.00,027.9,027.3,000.0,036.1,029.7,022.7,0000.0,0019.70,0007.08,0005.63
2024-05-20 18:33:00,SystemResetWarning,0825.3,4.99,000.00,027.9,027.3,000.0,036.1,029.7,022.6,0000.0,0019.69,0007.12,0005.58
2024-05-20 18:34:00,SystemResetWarning,0825.3,5.00,000.00,027.9,027.3,000.0,036.1,029.7,022.2,0000.0,0018.72,0007.14,0005.57
2024-05-20 18:35:00,SystemResetWarning,0825.3,5.00,000.00,027.9,027.3,000.0,036.1,029.7,022.4,0000.0,0018.23,0007.13,0005.57
2024-05-20 18:36:00,SystemResetWarning,0825.3,5.00,000.00,027.9,027.3,000.0,036.2,029.7,022.1,0000.0,0018.36,0007.12,0005.57
2024-05-20 18:37:00,SystemResetWarning,0825.2,5.00,000.00,027.9,027.3,000.0,036.2,029.7,022.7,0000.1,0018.65,0007.15,0005.59
2024-05-20 18:38:00,SystemResetWarning,0825.3,5.00,000.00,028.0,027.3,000.0,036.2,029.7,023.1,0003.3,0020.19,0007.17,0005.62
2024-05-20 18:39:00,SystemResetWarning,0825.3,5.00,000.00,028.0,027.3,000.0,036.2,029.8,022.6,0003.0,0020.28,0007.24,0005.68
2024-05-20 18:40:00,SystemResetWarning,0825.3,5.00,000.00,028.0,027.3,000.0,036.2,029.8,022.2,0002.9,0020.58,0007.26,0005.71
2024-05-20 18:41:00,SystemResetWarning,0825.3,5.00,000.00,028.0,027.3,000.0,036.2,029.8,022.1,0003.2,0020.33,0007.35,0005.77
2024-05-20 18:42:00,SystemResetWarning,0825.3,5.00,000.00,028.0,027.3,000.0,036.2,029.8,022.0,0003.0,0020.47,0007.37,0005.79
2024-05-20 18:43:00,SystemResetWarning,0825.3,5.00,000.00,028.0,027.3,000.0,036.2,029.8,021.8,0002.9,0021.81,0007.43,0005.81
2024-05-20 18:44:00,SystemResetWarning,0825.3,5.00,000.00,028.0,027.4,000.0,036.2,029.8,021.9,0002.6,0022.44,0007.49,0005.88
2024-05-20 18:45:00,SystemResetWarning,0825.2,5.00,000.00,028.1,027.4,000.0,036.2,029.8,021.8,0002.6,0023.82,0007.52,0005.93
2024-05-20 18:46:00,SystemResetWarning,0825.1,5.00,000.00,028.1,027.4,000.0,036.2,029.8,021.7,0002.4,0023.63,0007.54,0005.97
2024-05-20 18:47:00,SystemResetWarning,0825.1,5.00,000.00,028.1,027.4,000.0,036.3,029.8,022.0,0002.1,0023.13,0007.57,0006.01
2024-05-20 18:48:00,SystemResetWarning,0825.2,5.00,000.00,028.1,027.4,000.0,036.3,029.9,021.9,0001.6,0023.27,0007.57,0006.01
2024-05-20 18:49:00,SystemResetWarning,0825.2,5.00,000.00,028.1,027.4,000.0,036.3,029.9,022.2,0000.8,0022.37,0007.62,0006.02
2024-05-20 18:50:00,SystemResetWarning,0825.2,4.99,000.00,028.1,027.5,000.0,036.3,029.9,022.1,0001.0,0022.22,0007.64,0006.02
2024-05-20 18:51:00,SystemResetWarning,0825.2,5.00,000.00,028.1,027.5,000.0,036.3,029.9,022.4,0001.2,0021.50,0007.64,0006.01
2024-05-20 18:52:00,SystemResetWarning,0825.2,5.00,000.00,028.2,027.5,000.0,036.4,029.9,021.5,0000.7,0020.61,0007.57,0005.97
2024-05-20 18:53:00,SystemResetWarning,0825.2,5.00,000.00,028.2,027.5,000.0,036.4,029.9,021.5,0000.7,0020.84,0007.59,0006.01
2024-05-20 18:54:00,SystemResetWarning,0825.2,5.00,000.00,028.2,027.5,000.0,036.4,029.9,021.6,0001.1,0020.13,0007.61,0006.06
2024-05-20 18:55:00,SystemResetWarning,0825.1,5.00,000.00,028.2,027.5,000.0,036.4,029.9,021.8,0000.8,0019.58,0007.62,0006.06
2024-05-20 18:56:00,SystemResetWarning,0825.1,5.00,000.00,028.2,027.5,000.0,036.4,029.9,021.6,0001.0,0018.54,0007.58,0006.07
2024-05-20 18:57:00,SystemResetWarning,0825.1,5.00,000.00,028.2,027.5,000.0,036.4,030.0,022.2,0001.3,0018.71,0007.57,0006.06
2024-05-20 18:58:00,SystemResetWarning,0825.1,5.00,000.00,028.2,027.6,000.0,036.4,030.0,022.0,0001.4,0019.73,0007.55,0006.03
2024-05-20 18:59:00,SystemResetWarning,0825.1,5.00,000.00,028.2,027.6,000.0,036.4,030.0,022.4,0001.4,0020.48,0007.52,0006.02
